Theta_e
324 323 321 320 320 319 317 316 317 317 317 318 319 318 317 317 317 316 315 317 322 322 320 321 320 320 318 317 318 319 317 317 316 317 316 317 317 317 316 316 315 315 314
324 322 321 321 319 317 316 316 316 316 316 316 316 317 316 316 316 315 315 314 319 323 321 321 321 320 319 317 317 318 318 317 316 316 315 317 315 315 316 315 314 314 313
325 322 320 319 319 318 315 315 315 316 314 316 315 314 313 314 314 315 314 314 314 318 321 321 321 321 320 320 319 318 318 318 317 316 316 315 315 315 314 314 313 313 311
325 321 320 319 319 316 314 313 313 313 312 312 312 312 311 312 312 313 313 313 313 314 318 321 322 321 321 321 321 320 319 318 317 316 316 315 315 315 315 314 314 313 312
325 322 320 319 318 315 312 312 312 312 311 310 311 311 309 309 309 311 310 311 311 311 311 317 318 319 321 321 321 321 320 319 318 317 317 316 315 316 315 315 314 313 312
325 322 320 319 317 314 311 311 310 311 310 310 311 308 307 307 307 307 308 309 309 310 310 310 310 310 315 320 321 321 322 321 320 319 317 316 316 316 316 316 315 314 313
326 322 320 318 316 313 311 310 309 309 308 309 306 304 304 306 305 305 306 307 309 309 309 308 309 310 310 318 320 321 321 322 322 321 319 318 317 317 317 316 316 315 314
327 322 320 318 315 312 311 309 307 306 307 308 304 304 302 304 303 305 304 306 306 307 306 308 308 309 309 309 313 319 320 321 321 322 322 320 319 318 318 317 317 316 316
326 325 322 319 315 313 311 309 306 306 302 303 305 305 300 300 300 303 304 305 304 305 306 305 306 306 306 308 311 313 317 317 320 320 321 322 321 320 319 319 319 318 317
325 324 323 321 316 313 311 309 306 307 305 302 300 303 301 300 300 299 301 299 300 302 302 303 303 302 304 305 305 305 307 311 314 317 318 317 320 323 321 320 319 319 319
323 323 321 320 317 314 312 310 308 307 307 306 302 300 301 298 297 297 298 300 295 295 298 300 302 302 303 302 301 303 305 308 310 311 314 315 315 318 319 323 321 319 319
321 321 320 320 318 314 312 311 309 307 306 306 306 303 302 299 296 295 294 297 298 300 297 295 297 298 299 298 300 300 303 305 307 309 310 311 313 314 315 317 318 321 320
319 319 319 318 318 317 315 313 310 307 306 306 305 304 304 304 303 298 298 298 295 296 295 295 294 295 295 294 296 296 298 302 305 307 308 308 310 311 312 313 315 316 319
321 321 319 319 318 318 316 313 311 308 306 305 304 304 304 303 303 302 300 296 295 295 294 297 290 292 295 295 295 296 295 299 301 303 304 306 307 309 311 311 313 314 316
316 319 319 318 317 316 314 311 309 306 304 303 303 303 303 304 303 302 302 300 298 294 297 299 295 294 294 295 295 295 294 295 298 300 301 302 304 305 307 309 311 312 313
309 311 311 311 311 310 310 309 307 306 303 302 302 302 302 303 302 302 300 300 299 297 294 298 298 297 293 294 293 294 293 293 295 297 299 300 301 302 304 305 307 309 311
307 308 308 310 309 308 307 306 305 304 303 302 301 301 301 302 301 300 299 299 298 297 294 297 300 300 295 293 293 292 292 292 292 294 296 297 298 299 300 302 303 305 307
300 300 300 300 300 301 301 300 301 301 301 300 300 299 299 299 299 300 299 298 298 298 295 294 297 297 297 297 295 293 292 291 291 293 295 297 297 298 298 299 300 301 302
294 294 294 294 294 295 295 295 295 296 297 298 298 297 298 298 294 295 296 297 297 297 296 294 294 296 296 296 293 290 290 289 289 291 294 295 296 296 297 298 299 299 299
290 290 290 290 290 291 291 289 289 291 291 291 292 293 294 293 292 292 293 293 294 293 293 293 293 293 293 294 288 290 291 288 288 288 289 291 292 292 294 295 296 295 296
286 286 286 286 286 288 288 287 286 287 287 287 287 288 288 288 289 290 291 291 291 291 291 290 290 291 291 291 290 290 288 289 290 288 287 287 287 287 288 291 291 292 294
283 284 284 284 284 285 291 291 290 285 285 285 286 286 286 286 287 291 292 292 291 288 287 287 287 287 288 290 291 290 290 288 287 289 285 286 286 285 286 287 290 291 292
282 282 283 283 283 284 288 289 289 285 284 284 285 285 286 285 285 285 289 289 288 290 290 288 286 286 286 288 288 287 288 288 288 290 285 285 285 284 286 286 290 291 292
281 282 282 283 283 283 287 288 288 284 284 284 284 285 285 285 287 286 286 286 286 286 286 287 287 287 287 288 287 287 287 287 288 289 285 283 288 283 284 284 288 290 291
280 280 282 281 281 282 286 287 287 284 284 284 284 283 284 285 287 288 286 285 285 285 288 290 290 291 291 292 291 288 286 285 284 286 285 283 285 280 277 281 285 288 290
279 279 280 280 280 280 285 287 286 283 284 284 285 285 285 285 288 288 285 285 283 284 285 285 286 287 288 288 289 288 286 283 284 283 284 279 276 277 276 273 279 284 284
Wind_Speed
4 5 5 4 4 4 4 3 3 2 2 1 1 2 3 4 4 3 3 4 1 5 5 5 5 5 4 4 5 5 4 5 5 2 6 7 8 9 8 9 9 9 8
5 4 5 4 4 4 4 4 4 3 2 2 0 1 1 1 1 3 4 4 3 3 4 6 7 6 7 5 5 7 7 6 7 5 7 6 8 7 8 8 8 8 9
6 5 4 3 4 4 5 3 3 3 3 2 4 2 0 2 2 2 2 4 5 8 6 9 9 9 9 9 10 8 9 9 10 9 10 10 10 10 10 9 8 9 9
7 5 5 4 4 4 4 3 3 3 3 4 3 4 3 3 5 4 3 3 4 4 7 9 11 12 12 12 12 12 11 12 12 12 12 13 12 12 12 12 12 12 12
6 5 5 5 5 4 4 4 4 4 3 3 3 3 3 3 4 3 5 5 5 3 3 9 11 10 12 14 14 14 14 14 14 14 15 15 16 16 15 15 16 16 15
7 5 5 6 6 4 4 3 4 3 3 4 3 2 3 4 4 4 5 5 5 5 5 4 4 5 10 15 17 17 18 17 17 18 18 19 18 19 19 20 20 19 18
9 7 4 5 5 6 5 5 3 4 3 1 3 2 4 6 7 5 5 5 6 5 5 6 4 4 5 17 20 20 21 22 21 21 21 21 21 22 22 23 21 22 21
9 7 6 5 6 4 5 5 5 2 1 3 3 0 4 3 4 6 4 5 6 4 5 7 6 6 5 4 10 22 24 24 24 23 24 24 25 25 26 25 26 25 25
7 9 8 6 6 6 5 4 5 6 4 3 5 3 1 4 3 0 5 5 6 5 4 5 8 7 7 6 8 11 20 23 23 26 25 25 28 29 29 28 29 28 27
8 7 9 7 7 5 7 7 5 6 4 5 0 3 2 3 3 4 2 3 4 5 6 5 6 6 7 7 9 11 12 13 18 25 27 28 28 30 32 32 31 30 29
7 7 7 7 8 7 7 8 6 8 7 4 4 2 4 2 2 4 7 5 3 4 5 7 8 8 9 7 8 12 18 22 23 23 25 28 31 31 30 29 31 32 32
6 8 8 8 8 7 8 8 8 8 8 7 5 5 5 4 4 5 7 8 7 5 5 5 7 7 7 7 10 16 18 23 27 27 28 28 29 31 33 34 34 31 32
4 7 9 9 8 9 7 7 7 7 8 8 8 6 6 8 5 3 5 6 6 4 4 5 7 6 6 6 9 13 17 24 28 28 28 28 30 31 32 35 36 35 34
6 5 6 5 7 6 7 7 5 5 6 7 9 8 6 6 5 6 6 3 5 5 4 7 4 7 7 7 10 14 11 21 26 27 28 29 30 31 31 34 36 35 34
3 4 5 6 6 5 5 6 5 6 5 5 6 7 6 5 5 6 6 6 6 7 8 4 4 5 5 6 10 9 9 16 23 25 26 27 28 30 31 33 35 36 37
3 4 4 4 4 3 2 3 3 3 5 4 4 6 6 5 6 5 5 6 6 9 12 1 4 4 6 6 8 10 11 15 18 23 25 25 26 27 29 31 33 34 35
5 5 5 4 4 3 4 3 1 1 4 4 4 5 6 5 5 4 4 5 7 8 13 10 9 8 5 8 7 9 9 9 8 19 24 26 27 27 28 29 31 32 33
6 6 6 6 6 6 5 3 2 4 4 4 4 4 6 4 7 6 5 7 9 8 9 20 11 10 11 8 8 10 8 7 9 15 22 26 26 27 27 28 29 29 30
7 7 7 7 6 6 6 5 5 4 4 4 5 5 5 5 5 4 5 7 8 7 9 11 14 11 10 8 7 6 7 7 8 17 24 26 28 28 29 29 29 27 28
7 7 6 6 7 6 6 6 5 4 3 4 5 4 6 6 6 6 6 7 7 8 9 11 12 13 10 7 3 8 12 7 10 9 15 19 20 23 26 27 27 27 28
6 6 6 7 6 5 4 5 5 5 5 6 6 6 5 6 9 9 7 9 9 9 8 9 13 13 12 11 11 7 10 10 11 7 9 9 9 9 12 22 23 25 28
7 6 7 7 7 4 11 10 8 6 6 6 8 6 6 7 9 13 14 17 15 11 14 11 14 14 17 12 11 11 13 11 15 5 7 10 7 10 10 9 20 24 26
6 6 6 6 6 5 12 14 12 5 6 6 6 7 7 4 6 6 12 17 15 16 17 13 16 16 18 16 13 14 14 13 14 10 7 12 6 11 9 10 23 25 26
4 4 4 4 4 4 14 15 14 4 4 6 6 7 7 8 10 11 11 11 11 10 10 9 13 17 17 16 14 14 17 16 14 12 7 12 9 9 7 8 21 24 26
4 4 3 6 7 8 16 17 15 7 8 7 5 5 6 8 12 17 11 12 14 13 12 18 21 25 28 28 24 13 14 13 16 13 5 6 8 4 3 7 8 22 25
4 5 6 4 5 6 14 17 14 4 11 10 11 8 11 9 15 17 11 12 15 14 14 14 12 15 19 19 25 16 12 13 13 11 5 5 2 3 4 2 3 7 8
Wind_Direction
176 149 153 177 175 174 152 192 134 160 124 65 60 83 42 50 42 114 125 141 20 162 173 165 168 169 172 170 169 174 170 174 180 198 174 158 148 140 150 140 142 141 146
164 163 161 183 156 151 168 173 163 164 170 144 67 38 40 67 167 106 156 165 196 265 221 207 200 200 195 208 199 199 207 203 205 209 204 202 185 178 169 167 165 165 157
168 163 164 181 165 161 161 156 151 152 150 175 187 170 343 311 325 235 186 182 188 207 238 231 226 225 223 217 214 214 215 213 215 215 217 216 204 204 196 195 183 190 186
171 168 168 181 168 146 152 161 171 191 193 186 206 199 202 213 244 250 230 223 194 200 217 230 236 228 235 233 230 227 225 229 227 227 226 229 224 215 209 202 202 200 200
198 169 173 180 160 154 181 186 198 176 195 200 215 212 213 221 239 263 268 254 254 235 205 223 224 245 245 240 241 239 237 234 233 230 231 235 234 226 222 217 214 207 209
192 185 184 176 157 162 196 199 187 209 176 187 207 223 256 236 227 230 234 239 233 240 254 250 236 228 236 245 247 247 248 235 235 234 236 236 236 236 232 223 223 219 213
184 191 186 174 162 175 191 194 186 192 237 181 109 310 260 234 224 224 222 231 231 223 214 237 225 216 232 237 240 246 251 254 240 237 230 233 236 237 238 236 230 228 222
183 179 182 189 168 164 195 193 167 141 175 184 154 33 307 326 262 230 224 232 230 220 228 226 233 232 232 239 238 242 248 253 255 245 238 234 232 235 238 238 238 232 228
186 178 184 178 177 177 191 180 164 170 181 216 191 166 240 243 314 322 225 225 221 219 233 227 233 235 227 242 248 244 246 248 255 259 258 248 240 235 236 237 238 236 233
194 181 188 180 166 168 180 196 188 203 153 186 322 218 156 161 238 315 304 268 254 237 222 234 238 239 235 239 243 248 250 262 261 256 256 258 263 250 239 236 235 237 233
193 192 184 177 178 185 199 190 185 199 205 183 194 146 207 174 179 222 277 273 280 250 244 239 236 236 235 231 238 245 249 251 253 257 256 253 256 261 260 259 242 241 235
191 197 197 198 195 190 194 195 200 196 199 211 206 192 197 183 198 200 236 257 262 260 232 232 238 242 240 238 243 249 251 254 257 256 254 255 254 256 257 260 265 254 243
173 197 195 200 203 206 197 192 191 199 203 210 207 213 221 231 221 199 238 258 248 269 272 230 228 229 230 232 242 240 247 253 260 262 262 260 259 258 255 255 258 260 255
191 183 188 196 203 198 192 184 189 194 186 203 213 216 217 225 221 223 231 206 277 244 230 252 215 219 228 229 235 240 243 250 255 260 264 266 266 266 261 255 254 255 258
132 180 189 192 195 188 182 174 190 189 189 202 223 225 225 233 220 225 228 226 248 287 283 238 259 221 223 224 234 243 241 246 251 259 263 265 267 267 267 265 260 256 254
80 85 85 86 85 78 113 165 169 182 196 199 208 214 225 230 230 220 219 227 227 257 280 152 255 237 220 229 233 234 239 243 250 257 262 263 264 265 265 266 266 263 259
74 68 64 86 86 86 88 91 107 217 223 229 210 223 238 233 234 225 219 225 235 239 267 279 279 275 236 241 236 234 240 242 251 252 258 261 260 262 265 267 268 267 265
55 54 48 47 39 37 35 46 7 351 316 292 269 249 251 235 243 243 236 242 245 244 262 281 283 284 273 268 253 243 237 231 238 248 257 265 268 269 267 265 266 265 265
52 48 51 54 47 33 26 25 17 4 320 302 300 288 277 265 264 259 250 257 260 261 258 270 284 285 285 280 266 257 247 242 238 244 253 259 262 265 265 264 264 263 262
49 45 42 44 38 30 32 14 356 341 308 291 292 290 295 293 283 289 282 278 275 274 273 273 279 286 284 287 256 281 277 236 252 238 241 249 257 259 264 267 265 262 260
39 38 44 37 32 34 15 357 341 328 318 302 282 270 262 258 270 276 283 284 286 283 282 280 281 288 290 291 284 289 270 282 267 232 247 238 241 250 254 259 257 258 259
34 25 28 24 14 5 344 348 338 318 312 304 300 290 269 267 268 268 267 283 281 285 281 280 283 283 286 286 290 288 288 287 290 204 242 256 218 239 241 240 251 256 259
21 13 18 13 358 343 349 344 335 307 294 282 278 289 301 281 277 285 300 301 297 291 283 286 282 280 288 291 297 294 285 281 279 280 233 271 219 245 240 243 248 254 256
7 353 5 344 326 341 346 342 340 318 300 295 298 298 294 301 312 312 307 300 296 287 276 271 270 283 282 284 274 274 277 276 274 272 232 266 265 252 242 235 248 256 257
5 343 346 354 352 338 343 345 349 342 334 323 301 287 283 302 305 307 301 296 296 293 281 279 274 272 274 275 274 282 280 281 282 281 244 256 261 262 225 245 241 256 259
353 349 348 337 317 317 326 339 347 331 334 328 320 309 299 298 300 304 301 296 294 295 293 290 283 286 284 273 267 259 268 272 278 280 250 222 201 173 275 296 287 256 259